| time (UTC) | temp C | wind direction | speed KPH | gust KPH | rain 1hr cm | rain 24hr cm | rain mn cm | humidity % | barometer mb |
| 20260503223505 | 16 | 32 | 4.8 | 16.1 | 0.00 | 0.00 | 0.00 | 55 | 1013.2 |
| 20260503223004 | 16 | 61 | 3.2 | 16.1 | 0.00 | 0.00 | 0.00 | 55 | 1013.0 |
| 20260503222505 | 16 | 78 | 4.8 | 9.7 | 0.00 | 0.00 | 0.00 | 55 | 1013.1 |
| 20260503222002 | 16 | 190 | 3.2 | 16.1 | 0.00 | 0.00 | 0.00 | 54 | 1012.8 |
| 20260503221503 | 16 | 71 | 6.4 | 16.1 | 0.00 | 0.00 | 0.00 | 54 | 1013.0 |
| 20260503221002 | 16 | 88 | 4.8 | 16.1 | 0.00 | 0.00 | 0.00 | 54 | 1013.0 |
| 20260503220502 | 16 | 87 | 3.2 | 16.1 | 0.00 | 0.00 | 0.00 | 54 | 1013.0 |
| 20260503220104 | 16 | 94 | 6.4 | 12.9 | 0.00 | 0.00 | 0.00 | 54 | 1013.0 |
| 20260503215559 | 16 | 28 | 4.8 | 16.1 | 0.00 | 0.00 | 0.00 | 53 | 1013.0 |
| 20260503215100 | 16 | 313 | 3.2 | 16.1 | 0.00 | 0.00 | 0.00 | 53 | 1013.0 |
| 20260503214602 | 16 | 355 | 3.2 | 9.7 | 0.00 | 0.00 | 0.00 | 53 | 1013.0 |
| 20260503214104 | 16 | 5 | 3.2 | 16.1 | 0.00 | 0.00 | 0.00 | 53 | 1013.0 |
| 20260503213603 | 16 | 106 | 6.4 | 16.1 | 0.00 | 0.00 | 0.00 | 53 | 1013.1 |
| 20260503213112 | 16 | 63 | 3.2 | 11.3 | 0.00 | 0.00 | 0.00 | 53 | 1013.0 |
| 20260503212600 | 16 | 94 | 4.8 | 8.0 | 0.00 | 0.00 | 0.00 | 53 | 1013.0 |
| 20260503212059 | 17 | 78 | 3.2 | 17.7 | 0.00 | 0.00 | 0.00 | 53 | 1013.1 |
| 20260503211558 | 17 | 88 | 4.8 | 17.7 | 0.00 | 0.00 | 0.00 | 52 | 1013.0 |
| 20260503211058 | 17 | 360 | 4.8 | 12.9 | 0.00 | 0.00 | 0.00 | 52 | 1013.0 |
| 20260503210558 | 17 | 254 | 1.6 | 14.5 | 0.00 | 0.00 | 0.00 | 52 | 1013.0 |
| 20260503210105 | 17 | 65 | 6.4 | 14.5 | 0.00 | 0.00 | 0.00 | 52 | 1012.9 |
| 20260503205559 | 17 | 13 | 3.2 | 12.9 | 0.00 | 0.00 | 0.00 | 52 | 1013.0 |
| 20260503205100 | 17 | 65 | 6.4 | 19.3 | 0.00 | 0.00 | 0.00 | 52 | 1012.8 |
| 20260503204558 | 17 | 42 | 6.4 | 19.3 | 0.00 | 0.00 | 0.00 | 52 | 1012.9 |
| 20260503204200 | 17 | 337 | 3.2 | 14.5 | 0.00 | 0.00 | 0.00 | 52 | 1013.0 |
| 20260503203558 | 17 | 19 | 3.2 | 14.5 | 0.00 | 0.00 | 0.00 | 52 | 1012.9 |
| 20260503203103 | 17 | 82 | 4.8 | 12.9 | 0.00 | 0.00 | 0.00 | 52 | 1012.9 |
| 20260503202558 | 17 | 264 | 1.6 | 9.7 | 0.00 | 0.00 | 0.00 | 51 | 1013.0 |
| 20260503202058 | 17 | 24 | 1.6 | 9.7 | 0.00 | 0.00 | 0.00 | 51 | 1012.9 |
| 20260503201557 | 17 | 315 | 3.2 | 14.5 | 0.00 | 0.00 | 0.00 | 51 | 1013.0 |
| 20260503201056 | 17 | 5 | 3.2 | 12.9 | 0.00 | 0.00 | 0.00 | 51 | 1012.9 |
| 20260503200559 | 17 | 74 | 3.2 | 12.9 | 0.00 | 0.00 | 0.00 | 51 | 1012.9 |
| 20260503200058 | 17 | 51 | 4.8 | 12.9 | 0.00 | 0.00 | 0.00 | 51 | 1012.9 |
| 20260503195555 | 18 | 42 | 4.8 | 20.9 | 0.00 | 0.00 | 0.00 | 50 | 1013.0 |
| 20260503195055 | 18 | 178 | 4.8 | 20.9 | 0.00 | 0.00 | 0.00 | 50 | 1012.9 |
| 20260503194555 | 18 | 311 | 6.4 | 14.5 | 0.00 | 0.00 | 0.00 | 50 | 1013.0 |
| 20260503194058 | 18 | 256 | 4.8 | 17.7 | 0.00 | 0.00 | 0.00 | 50 | 1013.0 |
| 20260503193555 | 18 | 109 | 6.4 | 17.7 | 0.00 | 0.00 | 0.00 | 49 | 1012.9 |
| 20260503193103 | 18 | 69 | 4.8 | 12.9 | 0.00 | 0.00 | 0.00 | 49 | 1012.9 |
| 20260503192554 | 18 | 17 | 4.8 | 12.9 | 0.00 | 0.00 | 0.00 | 49 | 1013.2 |
| 20260503192053 | 18 | 330 | 4.8 | 12.9 | 0.00 | 0.00 | 0.00 | 49 | 1012.8 |
| 20260503191556 | 18 | 294 | 3.2 | 11.3 | 0.00 | 0.00 | 0.00 | 49 | 1012.9 |
| 20260503191054 | 18 | 204 | 3.2 | 9.7 | 0.00 | 0.00 | 0.00 | 48 | 1012.8 |
| 20260503190553 | 18 | 275 | 3.2 | 11.3 | 0.00 | 0.00 | 0.00 | 48 | 1012.8 |
| 20260503190055 | 18 | 328 | 3.2 | 8.0 | 0.00 | 0.00 | 0.00 | 48 | 1012.7 |
| 20260503185552 | 18 | 67 | 3.2 | 9.7 | 0.00 | 0.00 | 0.00 | 48 | 1012.8 |
| 20260503185055 | 18 | 338 | 3.2 | 9.7 | 0.00 | 0.00 | 0.00 | 47 | 1012.8 |
| 20260503184607 | 18 | 10 | 3.2 | 8.0 | 0.00 | 0.00 | 0.00 | 47 | 1012.8 |
| 20260503184051 | 18 | 271 | 3.2 | 6.4 | 0.00 | 0.00 | 0.00 | 47 | 1012.8 |
| 20260503183553 | 19 | 313 | 3.2 | 8.0 | 0.00 | 0.00 | 0.00 | 47 | 1012.7 |
| 20260503183103 | 19 | 34 | 3.2 | 8.0 | 0.00 | 0.00 | 0.00 | 46 | 1012.5 |
| 20260503182554 | 19 | 32 | 1.6 | 6.4 | 0.00 | 0.00 | 0.00 | 46 | 1012.7 |
| 20260503182053 | 19 | 34 | 3.2 | 6.4 | 0.00 | 0.00 | 0.00 | 46 | 1012.5 |
| 20260503181603 | 20 | 360 | 1.6 | 8.0 | 0.00 | 0.00 | 0.00 | 45 | 1012.5 |
| 20260503181051 | 20 | 80 | 3.2 | 8.0 | 0.00 | 0.00 | 0.00 | 45 | 1012.6 |
| 20260503180551 | 20 | 11 | 1.6 | 6.4 | 0.00 | 0.00 | 0.00 | 44 | 1012.5 |
| 20260503180051 | 20 | 72 | 1.6 | 4.8 | 0.00 | 0.00 | 0.00 | 44 | 1012.6 |
| 20260503175549 | 20 | 76 | 1.6 | 6.4 | 0.00 | 0.00 | 0.00 | 44 | 1012.6 |
| 20260503175054 | 20 | 34 | 1.6 | 6.4 | 0.00 | 0.00 | 0.00 | 43 | 1012.6 |
| 20260503174549 | 20 | 325 | 1.6 | 4.8 | 0.00 | 0.00 | 0.00 | 43 | 1012.6 |
| 20260503174050 | 20 | 17 | 1.6 | 9.7 | 0.00 | 0.00 | 0.00 | 44 | 1012.6 |
| 20260503173550 | 20 | 246 | 1.6 | 9.7 | 0.00 | 0.00 | 0.00 | 42 | 1012.6 |
| 20260503173058 | 20 | 331 | 1.6 | 4.8 | 0.00 | 0.00 | 0.00 | 44 | 1012.6 |
| 20260503172550 | 21 | 40 | 1.6 | 4.8 | 0.00 | 0.00 | 0.00 | 41 | 1012.6 |
| 20260503172048 | 21 | 315 | 0.0 | 4.8 | 0.00 | 0.00 | 0.00 | 42 | 1012.5 |
| 20260503171548 | 21 | 271 | 0.0 | 4.8 | 0.00 | 0.00 | 0.00 | 40 | 1012.6 |
| 20260503171047 | 21 | 152 | 0.0 | 3.2 | 0.00 | 0.00 | 0.00 | 41 | 1012.7 |
| 20260503170547 | 21 | 152 | 0.0 | 4.8 | 0.00 | 0.00 | 0.00 | 40 | 1012.7 |
| 20260503150539 | 22 | 96 | 4.8 | 17.7 | 0.00 | 0.00 | 0.00 | 31 | 1013.4 |
| 20260503131027 | 22 | 180 | 6.4 | 17.7 | 0.00 | 0.00 | 0.00 | 38 | 1014.9 |
| 20260503130525 | 22 | 156 | 4.8 | 14.5 | 0.00 | 0.00 | 0.00 | 41 | 1014.9 |
| 20260503110515 | 21 | 229 | 8.0 | 16.1 | 0.00 | 0.00 | 0.00 | 40 | 1016.1 |
| 20260503081604 | 17 | 171 | 4.8 | 16.1 | 0.00 | 0.00 | 0.00 | 51 | 1017.4 |
| 20260503081039 | 17 | 134 | 4.8 | 12.9 | 0.00 | 0.00 | 0.00 | 50 | 1017.4 |
| 20260503080539 | 17 | 97 | 4.8 | 22.5 | 0.00 | 0.00 | 0.00 | 48 | 1017.5 |
| 20260503072530 | 16 | 132 | 3.2 | 11.3 | 0.00 | 0.00 | 0.00 | 50 | 1017.5 |
| 20260503072031 | 16 | 130 | 1.6 | 12.9 | 0.00 | 0.00 | 0.00 | 50 | 1017.5 |
| 20260503071530 | 16 | 144 | 4.8 | 12.9 | 0.00 | 0.00 | 0.00 | 50 | 1017.4 |
| 20260503071028 | 16 | 88 | 1.6 | 9.7 | 0.00 | 0.00 | 0.00 | 52 | 1017.4 |
| 20260503070527 | 15 | 96 | 1.6 | 12.9 | 0.00 | 0.00 | 0.00 | 52 | 1017.4 |
| 20260503055014 | 13 | 80 | 4.8 | 12.9 | 0.00 | 0.00 | 0.00 | 55 | 1017.4 |
| 20260503054516 | 13 | 82 | 3.2 | 12.9 | 0.00 | 0.00 | 0.00 | 56 | 1017.3 |
| 20260503054013 | 13 | 80 | 6.4 | 12.9 | 0.00 | 0.00 | 0.00 | 56 | 1017.4 |
| 20260503053512 | 13 | 81 | 6.4 | 12.9 | 0.00 | 0.00 | 0.00 | 56 | 1017.3 |
| 20260503053014 | 13 | 87 | 3.2 | 11.3 | 0.00 | 0.00 | 0.00 | 57 | 1017.3 |
| 20260503052512 | 12 | 86 | 4.8 | 9.7 | 0.00 | 0.00 | 0.00 | 57 | 1017.3 |
| 20260503052011 | 12 | 74 | 4.8 | 14.5 | 0.00 | 0.00 | 0.00 | 57 | 1017.4 |
| 20260503051511 | 12 | 76 | 4.8 | 14.5 | 0.00 | 0.00 | 0.00 | 56 | 1017.3 |
| 20260503051010 | 12 | 53 | 6.4 | 11.3 | 0.00 | 0.00 | 0.00 | 57 | 1017.3 |
| 20260503050509 | 12 | 67 | 4.8 | 11.3 | 0.00 | 0.00 | 0.00 | 57 | 1017.4 |
| 20260503050025 | 12 | 86 | 4.8 | 14.5 | 0.00 | 0.00 | 0.00 | 57 | 1017.4 |
| 20260503045508 | 12 | 69 | 8.0 | 14.5 | 0.00 | 0.00 | 0.00 | 57 | 1017.3 |
| 20260503045012 | 12 | 84 | 6.4 | 11.3 | 0.00 | 0.00 | 0.00 | 57 | 1017.3 |
| 20260503044506 | 12 | 76 | 6.4 | 11.3 | 0.00 | 0.00 | 0.00 | 57 | 1017.4 |
| 20260503044005 | 12 | 88 | 6.4 | 11.3 | 0.00 | 0.00 | 0.00 | 57 | 1017.3 |
| 20260503043504 | 12 | 88 | 6.4 | 11.3 | 0.00 | 0.00 | 0.00 | 57 | 1017.3 |
| 20260503043005 | 12 | 90 | 3.2 | 12.9 | 0.00 | 0.00 | 0.00 | 57 | 1017.3 |
| 20260503042503 | 12 | 74 | 6.4 | 12.9 | 0.00 | 0.00 | 0.00 | 57 | 1017.2 |
| 20260503042003 | 12 | 105 | 4.8 | 11.3 | 0.00 | 0.00 | 0.00 | 57 | 1017.2 |
| 20260503041506 | 12 | 61 | 6.4 | 16.1 | 0.00 | 0.00 | 0.00 | 57 | 1017.2 |
| 20260503041002 | 12 | 77 | 6.4 | 16.1 | 0.00 | 0.00 | 0.00 | 57 | 1017.3 |
| 20260503040600 | 12 | 80 | 4.8 | 9.7 | 0.00 | 0.00 | 0.00 | 57 | 1017.2 |
| 20260503035559 | 12 | 69 | 3.2 | 8.0 | 0.00 | 0.00 | 0.00 | 57 | 1017.3 |
| 20260503035058 | 12 | 88 | 4.8 | 12.9 | 0.00 | 0.00 | 0.00 | 57 | 1017.3 |
| 20260503034558 | 12 | 84 | 4.8 | 12.9 | 0.00 | 0.00 | 0.00 | 57 | 1017.3 |
| 20260503034057 | 12 | 74 | 4.8 | 9.7 | 0.00 | 0.00 | 0.00 | 56 | 1017.4 |
| 20260503033657 | 12 | 86 | 4.8 | 9.7 | 0.00 | 0.00 | 0.00 | 56 | 1017.4 |
| 20260503033125 | 12 | 90 | 3.2 | 9.7 | 0.00 | 0.00 | 0.00 | 55 | 1017.3 |
| 20260503032554 | 12 | 90 | 4.8 | 9.7 | 0.00 | 0.00 | 0.00 | 55 | 1017.3 |
| 20260503032055 | 12 | 79 | 4.8 | 9.7 | 0.00 | 0.00 | 0.00 | 55 | 1017.3 |
| 20260503031559 | 12 | 92 | 4.8 | 9.7 | 0.00 | 0.00 | 0.00 | 55 | 1017.3 |
| 20260503031053 | 12 | 82 | 3.2 | 9.7 | 0.00 | 0.00 | 0.00 | 55 | 1017.3 |
| 20260503030556 | 12 | 92 | 3.2 | 8.0 | 0.00 | 0.00 | 0.00 | 55 | 1017.3 |
| 20260503030104 | 12 | 77 | 3.2 | 6.4 | 0.00 | 0.00 | 0.00 | 55 | 1017.3 |
| 20260503025552 | 12 | 84 | 3.2 | 9.7 | 0.00 | 0.00 | 0.00 | 55 | 1017.3 |
| 20260503025051 | 12 | 92 | 3.2 | 9.7 | 0.00 | 0.00 | 0.00 | 54 | 1017.3 |
| 20260503024615 | 12 | 82 | 3.2 | 6.4 | 0.00 | 0.00 | 0.00 | 54 | 1017.3 |
| 20260503024051 | 12 | 82 | 3.2 | 6.4 | 0.00 | 0.00 | 0.00 | 54 | 1017.4 |
| 20260503023551 | 12 | 88 | 3.2 | 6.4 | 0.00 | 0.00 | 0.00 | 54 | 1017.5 |
| 20260503023049 | 12 | 79 | 3.2 | 6.4 | 0.00 | 0.00 | 0.00 | 53 | 1017.4 |
| 20260503022552 | 12 | 86 | 1.6 | 6.4 | 0.00 | 0.00 | 0.00 | 53 | 1017.4 |
| 20260503022051 | 13 | 87 | 3.2 | 6.4 | 0.00 | 0.00 | 0.00 | 53 | 1017.4 |
| 20260503021546 | 13 | 76 | 3.2 | 6.4 | 0.00 | 0.00 | 0.00 | 52 | 1017.6 |
| 20260503021044 | 13 | 81 | 3.2 | 6.4 | 0.00 | 0.00 | 0.00 | 51 | 1017.6 |
| 20260503020545 | 13 | 90 | 3.2 | 9.7 | 0.00 | 0.00 | 0.00 | 51 | 1017.5 |
| 20260503020047 | 13 | 88 | 3.2 | 9.7 | 0.00 | 0.00 | 0.00 | 50 | 1017.6 |
| 20260503015542 | 13 | 90 | 1.6 | 6.4 | 0.00 | 0.00 | 0.00 | 50 | 1017.5 |
| 20260503015041 | 14 | 84 | 3.2 | 6.4 | 0.00 | 0.00 | 0.00 | 50 | 1017.5 |
| 20260503014543 | 14 | 81 | 3.2 | 11.3 | 0.00 | 0.00 | 0.00 | 49 | 1017.6 |
| 20260503014041 | 14 | 84 | 0.0 | 14.5 | 0.00 | 0.00 | 0.00 | 49 | 1017.6 |
| 20260503013539 | 14 | 93 | 4.8 | 14.5 | 0.00 | 0.00 | 0.00 | 49 | 1017.6 |
| 20260503013039 | 14 | 105 | 3.2 | 9.7 | 0.00 | 0.00 | 0.00 | 49 | 1017.6 |
| 20260503012540 | 15 | 86 | 3.2 | 9.7 | 0.00 | 0.00 | 0.00 | 49 | 1017.6 |
| 20260503012036 | 15 | 80 | 3.2 | 9.7 | 0.00 | 0.00 | 0.00 | 48 | 1017.6 |
| 20260503011541 | 15 | 84 | 3.2 | 12.9 | 0.00 | 0.00 | 0.00 | 48 | 1017.6 |
| 20260503011038 | 15 | 80 | 4.8 | 12.9 | 0.00 | 0.00 | 0.00 | 48 | 1017.7 |
| 20260503010535 | 15 | 71 | 3.2 | 12.9 | 0.00 | 0.00 | 0.00 | 48 | 1017.5 |
| 20260503010035 | 15 | 85 | 3.2 | 12.9 | 0.00 | 0.00 | 0.00 | 47 | 1017.6 |
| 20260503005534 | 15 | 136 | 3.2 | 8.0 | 0.00 | 0.00 | 0.00 | 47 | 1017.6 |
| 20260503005033 | 15 | 103 | 1.6 | 9.7 | 0.00 | 0.00 | 0.00 | 47 | 1017.6 |
| 20260503004533 | 15 | 130 | 1.6 | 12.9 | 0.00 | 0.00 | 0.00 | 47 | 1017.6 |
| 20260503004032 | 15 | 88 | 3.2 | 12.9 | 0.00 | 0.00 | 0.00 | 46 | 1017.7 |
| 20260503003534 | 15 | 71 | 4.8 | 12.9 | 0.00 | 0.00 | 0.00 | 47 | 1017.7 |
| 20260503003032 | 15 | 95 | 3.2 | 9.7 | 0.00 | 0.00 | 0.00 | 47 | 1017.7 |
| 20260503002532 | 15 | 82 | 1.6 | 6.4 | 0.00 | 0.00 | 0.00 | 46 | 1017.8 |
| 20260503002036 | 15 | 71 | 1.6 | 8.0 | 0.00 | 0.00 | 0.00 | 46 | 1017.8 |
| 20260503001531 | 15 | 61 | 3.2 | 8.0 | 0.00 | 0.00 | 0.00 | 46 | 1017.8 |
| 20260503001031 | 15 | 46 | 1.6 | 8.0 | 0.00 | 0.00 | 0.00 | 47 | 1017.7 |
| 20260503000533 | 15 | 49 | 1.6 | 8.0 | 0.00 | 0.00 | 0.00 | 47 | 1017.9 |
| 20260503000029 | 15 | 19 | 1.6 | 8.0 | 0.00 | 0.00 | 0.00 | 47 | 1017.8 |
| 20260502235528 | 15 | 298 | 1.6 | 8.0 | 0.00 | 0.00 | 0.00 | 48 | 1017.9 |
| 20260502235027 | 15 | 19 | 1.6 | 8.0 | 0.00 | 0.00 | 0.00 | 47 | 1018.1 |
| 20260502234527 | 15 | 48 | 0.0 | 8.0 | 0.00 | 0.00 | 0.00 | 47 | 1018.1 |
| 20260502234027 | 16 | 5 | 1.6 | 8.0 | 0.00 | 0.00 | 0.00 | 47 | 1018.1 |
| 20260502233526 | 15 | 65 | 1.6 | 8.0 | 0.00 | 0.00 | 0.00 | 46 | 1018.2 |
| 20260502233126 | 15 | 318 | 1.6 | 4.8 | 0.00 | 0.00 | 0.00 | 47 | 1018.2 |
| 20260502232525 | 15 | 34 | 0.0 | 4.8 | 0.00 | 0.00 | 0.00 | 48 | 1018.3 |
| 20260502232025 | 15 | 313 | 1.6 | 6.4 | 0.00 | 0.00 | 0.00 | 47 | 1018.4 |
| 20260502231527 | 15 | 360 | 1.6 | 6.4 | 0.00 | 0.00 | 0.00 | 47 | 1018.4 |
| 20260502231025 | 15 | 360 | 1.6 | 6.4 | 0.00 | 0.00 | 0.00 | 47 | 1018.4 |
| 20260502230524 | 16 | 42 | 1.6 | 8.0 | 0.00 | 0.00 | 0.00 | 47 | 1018.4 |
| 20260502230125 | 16 | 44 | 1.6 | 8.0 | 0.00 | 0.00 | 0.00 | 46 | 1018.5 |
| 20260502225521 | 15 | 291 | 1.6 | 4.8 | 0.00 | 0.00 | 0.00 | 46 | 1018.6 |
| 20260502225021 | 15 | 290 | 1.6 | 6.4 | 0.00 | 0.00 | 0.00 | 45 | 1018.6 |
| 20260502224521 | 16 | 57 | 0.0 | 6.4 | 0.00 | 0.00 | 0.00 | 45 | 1018.6 |
| 20260502224021 | 16 | 264 | 0.0 | 4.8 | 0.00 | 0.00 | 0.00 | 44 | 1018.7 |